Everett, WA

12:48 PM PST on December 11, 2019 (GMT -0800)
Snohomish County

Weather History for KPAE - October, 2019

Change the Weather History Date:

Friday, October 25, 2019

  Actual Average Record
Temperature  
Mean Temperature 52 °F -  
Max Temperature 55 °F 58 °F 67 °F (1966)
Min Temperature 48 °F 41 °F 31 °F (1975)
Degree Days  
Heating Degree Days 14    
Growing Degree Days 2 (Base 50)    
Moisture  
Dew Point 47 °F    
Average Humidity 84    
Maximum Humidity 97    
Minimum Humidity 67    
Precipitation  
Precipitation 0.06 in - - ()
Sea Level Pressure  
Sea Level Pressure 30.18 in    
Wind  
Wind Speed 7 mph (NW)    
Max Wind Speed 15 mph    
Max Gust Speed 30 mph    
Visibility 9 miles    
Events Fog , Rain    
Averages and records for this station are not official NWS values.
T = Trace of Precipitation, MM = Missing Value Source: NWS Daily Summary

Daily Weather History Graph

Daily Weather History Graph

Search for Another Location

Airport or City:

Astronomy

Oct. 25, 2019 Rise Set
Actual Time 7:43 AM PDT 6:02 PM PDT
Civil Twilight 7:11 AM PDT 6:34 PM PDT
Nautical Twilight 6:34 AM PDT 7:10 PM PDT
Astronomical Twilight 5:59 AM PDT 7:46 PM PDT
Moon 4:11 AM PDT (10/25) 5:24 PM PDT (10/25)
Length of Visible Light 11h 23m
Length of Day
10h 19m
Waning Crescent, 8% of the Moon is Illuminated
Oct 25
Waning Crescent
Oct 27
New
Nov 4
First Quarter
Nov 12
Full
Nov 19
Last Quarter

Hourly Weather History & Observations

Time (PDT) Temp. Dew Point Humidity Pressure Visibility Wind Dir Wind Speed Gust Speed Precip Events Conditions
1:53 AM 55.0 °F 46.9 °F 74% 30.20 in 10.0 mi SSE 6.9 mph - N/A   Overcast
2:53 AM 54.0 °F 48.0 °F 80% 30.19 in 10.0 mi Calm Calm - N/A   Overcast
3:53 AM 54.0 °F 48.0 °F 80% 30.17 in 10.0 mi SSE 4.6 mph - N/A   Overcast
4:53 AM 52.0 °F 48.0 °F 86% 30.15 in 10.0 mi SSE 5.8 mph - N/A   Mostly Cloudy
5:53 AM 52.0 °F 46.9 °F 83% 30.12 in 10.0 mi SSE 13.8 mph - N/A   Clear
6:53 AM 51.1 °F 46.9 °F 86% 30.11 in 10.0 mi SSE 8.1 mph - N/A   Clear
7:53 AM 52.0 °F 46.9 °F 83% 30.09 in 10.0 mi SSE 8.1 mph - N/A   Scattered Clouds
8:31 AM 53.1 °F 48.0 °F 83% 30.08 in 10.0 mi South 12.7 mph - N/A   Mostly Cloudy
8:38 AM 53.1 °F 48.0 °F 83% 30.08 in 10.0 mi South 15.0 mph - N/A   Mostly Cloudy
8:53 AM 53.1 °F 48.0 °F 83% 30.08 in 10.0 mi SSE 11.5 mph - N/A   Overcast
9:51 AM 51.8 °F 48.2 °F 88% 30.12 in 10.0 mi West 8.1 mph - N/A   Overcast
9:53 AM 52.0 °F 48.9 °F 89% 30.13 in 10.0 mi West 5.8 mph - N/A   Overcast
10:53 AM 52.0 °F 46.9 °F 83% 30.14 in 10.0 mi NNW 4.6 mph - 0.00 in Rain Light Rain
10:55 AM 52.0 °F 46.9 °F 83% 30.14 in 10.0 mi Variable 4.6 mph - 0.00 in Rain Light Rain
11:12 AM 51.1 °F 46.9 °F 86% 30.15 in 2.5 mi North 6.9 mph - 0.01 in Rain Light Rain
11:53 AM 50.0 °F 45.0 °F 83% 30.15 in 4.0 mi WNW 15.0 mph 29.9 mph 0.04 in Rain Light Rain
12:01 PM 48.9 °F 45.0 °F 86% 30.15 in 5.0 mi NNW 11.5 mph 26.5 mph 0.00 in Rain Light Rain
12:53 PM 52.0 °F 46.0 °F 80% 30.17 in 10.0 mi NNW 9.2 mph 17.3 mph 0.00 in   Mostly Cloudy
1:53 PM 55.0 °F 46.0 °F 72% 30.17 in 10.0 mi North 10.4 mph - N/A   Scattered Clouds
2:53 PM 54.0 °F 45.0 °F 72% 30.19 in 10.0 mi North 10.4 mph 18.4 mph N/A   Mostly Cloudy
3:53 PM 55.0 °F 44.1 °F 67% 30.18 in 10.0 mi North 9.2 mph 17.3 mph N/A   Clear
4:53 PM 55.0 °F 44.1 °F 67% 30.19 in 10.0 mi North 10.4 mph - N/A   Overcast
5:53 PM 50.0 °F 46.0 °F 86% 30.20 in 10.0 mi WNW 3.5 mph - N/A   Clear
6:53 PM 50.0 °F 48.0 °F 93% 30.20 in 7.0 mi WNW 5.8 mph - N/A   Mostly Cloudy
6:59 PM 50.0 °F 48.0 °F 93% 30.20 in 7.0 mi West 6.9 mph - N/A Fog Fog
7:01 PM 50.0 °F 48.0 °F 93% 30.20 in 0.2 mi West 5.8 mph - N/A Fog Fog
7:07 PM 50.0 °F 48.0 °F 93% 30.20 in 2.0 mi WSW 8.1 mph - N/A   Overcast
7:16 PM 50.0 °F 48.0 °F 93% 30.20 in 10.0 mi West 4.6 mph - N/A   Overcast
7:53 PM 50.0 °F 48.0 °F 93% 30.21 in 10.0 mi NW 3.5 mph - N/A   Mostly Cloudy
8:27 PM 50.0 °F 48.0 °F 93% 30.22 in 10.0 mi NNW 4.6 mph - 0.01 in Rain Light Rain
8:49 PM 50.0 °F 48.2 °F 94% 30.23 in 10.0 mi NNW 3.5 mph - 0.01 in   Overcast
8:53 PM 48.9 °F 48.0 °F 97% 30.23 in 10.0 mi North 3.5 mph - 0.01 in   Overcast
9:53 PM 50.0 °F 43.0 °F 77% 30.25 in 10.0 mi North 4.6 mph - N/A   Overcast
10:23 PM 48.9 °F 44.1 °F 83% 30.25 in 10.0 mi NNW 4.6 mph - 0.01 in Rain Light Rain
10:49 PM 48.2 °F 44.6 °F 87% 30.26 in 10.0 mi North 3.5 mph - 0.01 in   Overcast
10:53 PM 48.9 °F 45.0 °F 86% 30.27 in 10.0 mi NNW 4.6 mph - 0.01 in   Mostly Cloudy
11:53 PM 48.0 °F 43.0 °F 83% 30.28 in 10.0 mi North 5.8 mph - N/A   Clear